Change the Weather History Date:

Thursday, August 28, 2014

  Actual Average Record
Temperature  
Mean Temperature 66 °F -  
Max Temperature 69 °F 78 °F 97 °F (1973)
Min Temperature 64 °F 55 °F 33 °F (2007)
Cooling Degree Days 2    
Growing Degree Days 16 (Base 50)    
Moisture  
Dew Point 60 °F    
Average Humidity 81    
Maximum Humidity 100    
Minimum Humidity 64    
Precipitation  
Precipitation 0.02 in - - ()
Sea Level Pressure  
Sea Level Pressure 29.98 in    
Wind  
Wind Speed 8 mph (SE)    
Max Wind Speed 16 mph    
Max Gust Speed 18 mph    
Visibility 9 miles    
Events Rain    
Averages and records for this station are not official NWS values.
T = Trace of Precipitation, MM = Missing Value Source: NWS Daily Summary

Daily Weather History Graph

Daily Weather History Graph

Search for Another Location

Airport or City:

Trip Planner

Search our weather history database for the weather conditions in past years. The results will help you decide how hot, cold, wet, or windy it might be!

Date:

Astronomy

Aug. 28, 2014 Rise Set
Actual Time 6:39 AM CDT 8:10 PM CDT
Civil Twilight 6:08 AM CDT 8:42 PM CDT
Nautical Twilight 5:30 AM CDT 9:20 PM CDT
Astronomical Twilight 4:49 AM CDT 10:00 PM CDT
Moon 9:45 AM CDT (8/28) 9:21 PM CDT (8/28)
Length of Visible Light 14h 33m
Length of Day
13h 30m
Waxing Crescent, 9% of the Moon is Illuminated
Aug 28
Waxing Crescent
Sep 2
First Quarter
Sep 8
Full
Sep 15
Last Quarter
Sep 24
New

Hourly Weather History & Observations

Time (CDT) Temp. Dew Point Humidity Pressure Visibility Wind Dir Wind Speed Gust Speed Precip Events Conditions
12:14 AM 64.4 °F 57.2 °F 77% 30.08 in 10.0 mi ESE 6.9 mph - N/A   Clear
12:34 AM 64.4 °F 57.2 °F 77% 30.08 in 10.0 mi SE 6.9 mph - N/A   Scattered Clouds
12:54 AM 64.4 °F 57.2 °F 77% 30.08 in 10.0 mi SE 6.9 mph - N/A   Scattered Clouds
1:14 AM 64.4 °F 57.2 °F 77% 30.07 in 10.0 mi SE 8.1 mph - N/A   Clear
1:34 AM 64.4 °F 57.2 °F 77% 30.07 in 10.0 mi SE 8.1 mph - N/A   Scattered Clouds
1:54 AM 64.4 °F 57.2 °F 77% 30.07 in 10.0 mi SE 8.1 mph - N/A   Mostly Cloudy
2:14 AM 64.4 °F 55.4 °F 73% 30.06 in 10.0 mi SE 9.2 mph - N/A   Overcast
2:34 AM 64.4 °F 57.2 °F 77% 30.06 in 10.0 mi SE 6.9 mph - N/A   Overcast
2:54 AM 64.4 °F 57.2 °F 77% 30.05 in 10.0 mi SE 6.9 mph - N/A   Overcast
3:14 AM 64.4 °F 57.2 °F 77% 30.05 in 10.0 mi SSE 9.2 mph - N/A   Overcast
3:34 AM 64.4 °F 57.2 °F 77% 30.04 in 10.0 mi SSE 9.2 mph - N/A   Overcast
3:54 AM 64.4 °F 57.2 °F 77% 30.04 in 10.0 mi SSE 9.2 mph - N/A   Overcast
4:14 AM 64.4 °F 57.2 °F 77% 30.04 in 10.0 mi SSE 8.1 mph - N/A   Overcast
4:34 AM 64.4 °F 57.2 °F 77% 30.04 in 10.0 mi SE 6.9 mph - N/A   Overcast
4:54 AM 64.4 °F 57.2 °F 77% 30.03 in 10.0 mi SSE 10.4 mph - N/A   Overcast
5:15 AM 64.4 °F 57.2 °F 77% 30.03 in 10.0 mi SSE 10.4 mph - N/A   Overcast
5:34 AM 64.4 °F 57.2 °F 77% 30.02 in 10.0 mi SE 10.4 mph - N/A   Mostly Cloudy
5:54 AM 64.4 °F 57.2 °F 77% 30.02 in 10.0 mi SE 9.2 mph - N/A   Scattered Clouds
6:14 AM 64.4 °F 57.2 °F 77% 30.02 in 10.0 mi SE 9.2 mph - N/A   Clear
6:34 AM 64.4 °F 57.2 °F 77% 30.02 in 10.0 mi SE 8.1 mph - N/A   Clear
6:54 AM 64.4 °F 57.2 °F 77% 30.02 in 10.0 mi SE 9.2 mph - N/A   Clear
7:14 AM 64.4 °F 57.2 °F 77% 30.02 in 10.0 mi SE 9.2 mph - N/A   Clear
7:34 AM 64.4 °F 57.2 °F 77% 30.01 in 10.0 mi SE 9.2 mph - N/A   Scattered Clouds
7:54 AM 64.4 °F 57.2 °F 77% 30.01 in 10.0 mi SE 9.2 mph - N/A   Scattered Clouds
8:14 AM 66.2 °F 57.2 °F 73% 30.01 in 10.0 mi SE 10.4 mph 16.1 mph N/A   Mostly Cloudy
8:34 AM 66.2 °F 57.2 °F 73% 30.01 in 10.0 mi SE 10.4 mph - N/A   Overcast
8:54 AM 66.2 °F 57.2 °F 73% 30.02 in 10.0 mi SSE 10.4 mph - N/A   Mostly Cloudy
9:14 AM 66.2 °F 57.2 °F 73% 30.01 in 10.0 mi SSE 9.2 mph - N/A   Mostly Cloudy
9:34 AM 66.2 °F 57.2 °F 73% 30.01 in 10.0 mi SE 10.4 mph - N/A   Overcast
10:14 AM 66.2 °F 57.2 °F 73% 30.01 in 10.0 mi SSE 10.4 mph - N/A   Mostly Cloudy
10:34 AM 66.2 °F 57.2 °F 73% 30.00 in 10.0 mi SSE 9.2 mph - N/A   Mostly Cloudy
10:54 AM 66.2 °F 59.0 °F 78% 30.00 in 10.0 mi SSE 10.4 mph - N/A   Mostly Cloudy
11:14 AM 69.8 °F 59.0 °F 68% 30.00 in 10.0 mi SSE 13.8 mph - N/A   Overcast
11:34 AM 69.8 °F 59.0 °F 68% 30.00 in 10.0 mi SSE 12.7 mph - N/A   Overcast
11:54 AM 69.8 °F 57.2 °F 64% 29.99 in 10.0 mi SSE 16.1 mph - N/A   Mostly Cloudy
12:14 PM 69.8 °F 57.2 °F 64% 29.98 in 10.0 mi SSE 12.7 mph 18.4 mph N/A   Scattered Clouds
12:34 PM 69.8 °F 57.2 °F 64% 29.98 in 10.0 mi SSE 13.8 mph 18.4 mph N/A   Scattered Clouds
12:54 PM 69.8 °F 59.0 °F 68% 29.97 in 10.0 mi SE 11.5 mph - N/A   Mostly Cloudy
1:14 PM 69.8 °F 59.0 °F 68% 29.97 in 10.0 mi SE 11.5 mph - N/A   Mostly Cloudy
1:34 PM 69.8 °F 59.0 °F 68% 29.97 in 10.0 mi SE 11.5 mph - N/A   Mostly Cloudy
1:54 PM 69.8 °F 60.8 °F 73% 29.97 in 10.0 mi SSE 10.4 mph - N/A   Overcast
2:14 PM 69.8 °F 60.8 °F 73% 29.96 in 10.0 mi SSE 10.4 mph - N/A   Light Drizzle
2:34 PM 68.0 °F 62.6 °F 83% 29.96 in 10.0 mi SE 8.1 mph - N/A Rain Light Rain
2:54 PM 68.0 °F 62.6 °F 83% 29.95 in 10.0 mi SE 8.1 mph - N/A   Light Drizzle
3:14 PM 68.0 °F 62.6 °F 83% 29.95 in 10.0 mi SE 9.2 mph - N/A   Light Drizzle
3:34 PM 68.0 °F 62.6 °F 83% 29.94 in 10.0 mi SE 8.1 mph - N/A   Light Drizzle
3:54 PM 68.0 °F 64.4 °F 88% 29.94 in 10.0 mi SE 8.1 mph - N/A   Light Drizzle
4:14 PM 68.0 °F 64.4 °F 88% 29.94 in 10.0 mi SE 6.9 mph - N/A   Light Drizzle
4:34 PM 66.2 °F 64.4 °F 94% 29.93 in 10.0 mi ESE 9.2 mph - N/A   Light Drizzle
4:54 PM 66.2 °F 64.4 °F 94% 29.93 in 10.0 mi ESE 6.9 mph - N/A   Light Drizzle
5:14 PM 68.0 °F 64.4 °F 88% 29.92 in 10.0 mi ESE 4.6 mph - N/A   Scattered Clouds
5:34 PM 68.0 °F 64.4 °F 88% 29.92 in 10.0 mi ESE 8.1 mph - N/A   Scattered Clouds
5:54 PM 68.0 °F 64.4 °F 88% 29.92 in 10.0 mi ESE 5.8 mph - N/A   Mostly Cloudy
6:14 PM 66.2 °F 64.4 °F 94% 29.91 in 10.0 mi ESE 6.9 mph - N/A   Light Drizzle
6:34 PM 66.2 °F 64.4 °F 94% 29.91 in 10.0 mi ESE 5.8 mph - N/A   Light Drizzle
6:54 PM 66.2 °F 64.4 °F 94% 29.91 in 10.0 mi SE 8.1 mph - N/A   Light Drizzle
7:14 PM 66.2 °F 64.4 °F 94% 29.90 in 10.0 mi ESE 9.2 mph - N/A   Light Drizzle
7:34 PM 66.2 °F 62.6 °F 88% 29.90 in 10.0 mi ESE 8.1 mph - N/A   Light Drizzle
7:54 PM 66.2 °F 62.6 °F 88% 29.90 in 10.0 mi ESE 5.8 mph - N/A   Overcast
8:14 PM 66.2 °F 62.6 °F 88% 29.90 in 10.0 mi ESE 9.2 mph - N/A   Overcast
8:34 PM 64.4 °F 62.6 °F 94% 29.90 in 2.5 mi SE 6.9 mph - 0.01 in   Light Drizzle
8:54 PM 64.4 °F 64.4 °F 100% 29.90 in 4.0 mi ESE 6.9 mph - 0.01 in   Overcast
9:13 PM 64.4 °F 64.4 °F 100% 29.89 in 7.0 mi ESE 6.9 mph - N/A   Overcast
9:34 PM 64.4 °F 62.6 °F 94% 29.89 in 10.0 mi ESE 6.9 mph - N/A   Overcast
9:54 PM 66.2 °F 62.6 °F 88% 29.88 in 10.0 mi ESE 6.9 mph - N/A   Overcast
10:14 PM 64.4 °F 62.6 °F 94% 29.89 in 4.0 mi ESE 6.9 mph - N/A   Overcast
10:34 PM 64.4 °F 62.6 °F 94% 29.88 in 2.5 mi ESE 5.8 mph - N/A   Overcast
10:54 PM 64.4 °F 62.6 °F 94% 29.88 in 3.0 mi ESE 5.8 mph - N/A   Overcast
11:13 PM 64.4 °F 62.6 °F 94% 29.87 in 4.0 mi ESE 3.5 mph - 0.01 in   Light Drizzle
11:34 PM 64.4 °F 62.6 °F 94% 29.87 in 4.0 mi ESE 4.6 mph - 0.01 in   Overcast
11:54 PM 64.4 °F 64.4 °F 100% 29.86 in 3.0 mi ESE 5.8 mph - 0.01 in   Overcast